Miscellaneous Local Product
Issued by NWS Hastings, NE

Home | Current Version | Previous Version | Graphics & Text | Print | Product List | Glossary On
Versions: 1 2 3 4 5 6 7 8 9 10 11 12 13 14 15 16 17 18 19 20 21 22 23 24 25 26 27 28 29 30 31 32 33 34 35 36 37 38 39 40 41 42 43 44 45 46 47 48 49 50
000
AXUS43 KGID 200302
MISGRI

GID CWA HOURLY WEATHER ROUNDUP
NATIONAL WEATHER SERVICE HASTINGS NE
1000 PM CDT SUN OCT 19 2014

NOTE: "FAIR" INDICATES FEW OR NO CLOUDS BELOW 12,000 FEET WITH NO
SIGNIFICANT WEATHER AND/OR OBSTRUCTIONS TO VISIBILITY.

...SOUTH CENTRAL NEBRASKA...

CITY           SKY/WX    TMP DP  RH WIND       PRES   REMARKS
GRAND ISLAND   CLEAR     52  46  80 SW3       30.01R
HASTINGS       CLEAR     55  45  68 SW3       30.01R
KEARNEY        CLEAR     57  46  67 SW5       30.02S
ORD            CLEAR     47  41  80 CALM      30.00R
YORK           CLEAR     50  45  81 W6        29.99S
AURORA         CLEAR     52  45  75 SW5       30.00R
LEXINGTON      CLEAR     50  45  83 CALM      30.03R
HOLDREGE       CLEAR     50  44  81 CALM      30.02S
HEBRON         CLEAR     57  47  69 SW6       30.00S

...NEBRASKA PANHANDLE...

CITY           SKY/WX    TMP DP  RH WIND       PRES   REMARKS
CHADRON        CLEAR     45  39  79 W3        30.08R
ALLIANCE       CLEAR     47  36  65 SE5       30.10R
SCOTTSBLUFF    CLEAR     52  37  56 S3        30.10R
SIDNEY         CLEAR     44  36  73 CALM      30.12R

...WESTERN AND NORTH CENTRAL NEBRASKA...

CITY           SKY/WX    TMP DP  RH WIND       PRES   REMARKS
VALENTINE      CLEAR     52  37  56 W7        30.05R
AINSWORTH      CLEAR     50  38  62 W5        30.04R
ONEILL         CLEAR     56  42  59 W6        30.01R
BROKEN BOW     CLEAR     47  39  74 NW3       30.03R
IMPERIAL       CLEAR     54  39  57 CALM      30.07R
NORTH PLATTE   CLEAR     47  38  71 CALM      30.05R
MCCOOK         CLEAR     56  46  69 CALM      30.05R

...EASTERN NEBRASKA...

CITY           SKY/WX    TMP DP  RH WIND       PRES   REMARKS
NORFOLK        CLEAR     53  43  68 W5        29.96R
SO SIOUX CITY  CLEAR     53  45  74 W5        29.93R
TEKAMAH        CLEAR     52  45  77 S5        29.93S
COLUMBUS       CLEAR     48  41  76 NW3       29.98S
ALBION         CLEAR     47  40  77 CALM      29.99S
OMAHA EPPLEY   CLEAR     57  47  69 SE6       29.95S
OFFUTT AFB     CLEAR     49  49  99 SE2       29.95R
MILLARD        CLEAR     53  49  86 CALM      29.95S
LINCOLN        CLEAR     56  47  71 CALM      29.99R
NEBRASKA CITY  CLEAR     56  44  63 SW8       29.97S
BEATRICE       CLEAR     58  49  72 SW9       29.98S
FALLS CITY     CLEAR     58  48  69 SW8       29.98R

...NORTHERN KANSAS...

CITY           SKY/WX    TMP DP  RH WIND       PRES   REMARKS
GOODLAND       CLEAR     47  40  76 CALM      30.09R
HILL CITY      CLEAR     52  45  77 NW3       30.02S
NORTON         CLEAR     54  43  66 CALM      30.03
PHILLIPSBURG   CLEAR     55  48  76 NE3       30.02R HAZE
SMITH CENTER   CLEAR     54  46  76 SE6       30.02R
BELOIT         CLEAR     57  50  77 SE6       30.01R
HAYS           CLEAR     55  46  71 E7        30.01S
RUSSELL        CLEAR     57  51  80 SE10      30.00R
CONCORDIA      CLEAR     58  51  78 SW10      30.01R
SALINA         CLEAR     55  50  83 S5        30.01S
TOPEKA         CLEAR     61  49  64 SW7       30.00S



USA.gov is the U.S. government's official web portal to all federal, state and local government web resources and services.